Flag for United Kingdom Weather past 2 weeks in Belfast, Northern Ireland, United Kingdom

Now
37 °F

Clear.


Feels Like: 35 °F
Forecast: 46 / 51 °F
Wind: 3 mph from Northwest

Location: Belfast / Aldergrove Airport

Current Time: Apr 2, 2015 at 6:27:29 AM

Latest Report: Apr 2, 2015 at 5:50 AM


Visibility: 10 mi

Pressure: 30.09 "Hg

Humidity: 100%

Dew point: 37 °F

Location of BelfastLocation

Historic Weather in Belfast — Graph

°F

Belfast temperature yesterday

Maximum temperature yesterday: 45 °F (at 11:20 AM)
Minimum temperature yesterday: 36 °F (at 1:50 AM)
Average temperature yesterday: 41 °F

Past Weeks' High & Low Weather Summary

 TemperatureHumidityPressure
High55 °F (Mar 22, 2:20 PM)100% (Mar 18, 4:20 AM)30.60 "Hg (Mar 18, 4:20 AM)
Low27 °F (Mar 19, 2:50 AM)53% (Mar 26, 4:20 PM)29.15 "Hg (Mar 30, 9:50 PM)
Average43 °F85%29.96 "Hg
* Reported Mar 18 4:20 AM — Apr 2 5:20 AM, Belfast, Weather by CustomWeather, © 2015

Note: Actual official high and low records may vary slightly from our data, if they occured in-between our weather recording intervals... More about our weather records

Advertising

Belfast weather history for previous 24 hours

 ConditionsComfort  
Time TempWeatherWind HumidityBarometerVisibility
5:20 AM
Thu, Apr 2
39 °FClear.3 mph100%30.09 "Hg10 mi
4:50 AM37 °FClear.No wind100%30.09 "Hg10 mi
4:20 AM37 °FChilly.2 mph100%30.09 "HgN/A
3:50 AM37 °FChilly.3 mph100%30.09 "HgN/A
3:20 AM39 °FPassing clouds.2 mph100%30.07 "HgN/A
2:50 AM39 °FMostly cloudy.3 mph100%30.07 "HgN/A
2:20 AM39 °FPassing clouds.3 mph100%30.07 "HgN/A
1:50 AM39 °FOvercast.3 mph100%30.07 "HgN/A
1:20 AM39 °FPartly cloudy.3 mph100%30.07 "HgN/A
12:50 AM41 °FPassing clouds.5 mph93%30.07 "Hg4 mi
12:20 AM41 °FPassing clouds.5 mph93%30.07 "HgN/A
11:20 PM
Wed, Apr 1
41 °FLight rain. Partly cloudy.6 mph93%30.04 "HgN/A
10:50 PM41 °FLight rain. Passing clouds.5 mph93%30.04 "HgN/A
10:20 PM41 °FLight rain. Partly cloudy.5 mph93%30.04 "HgN/A
9:50 PM41 °FLight rain. Partly cloudy.5 mph93%30.04 "HgN/A
9:20 PM41 °FLight rain. Partly cloudy.6 mph93%30.04 "HgN/A
8:50 PM41 °FLight rain. Partly sunny.6 mph93%30.04 "HgN/A
8:20 PM41 °FLight rain. Partly sunny.6 mph93%30.04 "Hg6 mi
7:50 PM41 °FLight rain. Broken clouds.6 mph100%30.04 "Hg6 mi
7:20 PM43 °FLight rain. Broken clouds.5 mph93%30.04 "HgN/A
6:50 PM43 °FLight rain. Partly sunny.6 mph93%30.04 "HgN/A
6:20 PM43 °FLight rain. Partly sunny.7 mph93%30.04 "Hg6 mi
5:50 PM43 °FLight rain. Broken clouds.9 mph93%30.04 "HgN/A
5:20 PM43 °FLight rain. Broken clouds.10 mph93%30.07 "HgN/A
4:50 PM45 °FLight rain. Broken clouds.9 mph93%30.07 "HgN/A
4:20 PM45 °FLight rain. Broken clouds.10 mph93%30.07 "Hg6 mi
3:50 PM45 °FLight rain. Broken clouds.13 mph87%30.09 "HgN/A
3:20 PM45 °FLight rain. Broken clouds.14 mph87%30.09 "HgN/A
2:50 PM45 °FLight rain. Broken clouds.18 mph87%30.09 "HgN/A
2:20 PM45 °FLight rain. Broken clouds.16 mph87%30.12 "HgN/A
1:50 PM45 °FLight rain. Partly sunny.15 mph87%30.12 "HgN/A
1:20 PM45 °FLight rain. Partly sunny.18 mph81%30.12 "HgN/A
12:50 PM45 °FBroken clouds.16 mph87%30.12 "HgN/A
12:20 PM45 °FBroken clouds.15 mph87%30.15 "HgN/A
11:50 AM43 °FLight rain. Partly sunny.16 mph87%30.12 "Hg6 mi
11:20 AM45 °FScattered clouds.20 mph81%30.12 "HgN/A
10:50 AM43 °FScattered clouds.20 mph87%30.12 "HgN/A
10:20 AM41 °FSprinkles. Broken clouds.18 mph93%30.12 "HgN/A
9:50 AM41 °FBroken clouds.15 mph93%30.15 "HgN/A
9:20 AM41 °FSprinkles. Broken clouds.15 mph87%30.15 "HgN/A
8:50 AM39 °FSprinkles. Partly sunny.17 mph93%30.15 "HgN/A
8:20 AM39 °FPartly sunny.14 mph93%30.12 "HgN/A
7:50 AM39 °FPartly cloudy.13 mph87%30.12 "HgN/A
7:20 AM37 °FPassing clouds.12 mph93%30.12 "HgN/A
6:50 AM39 °FPartly cloudy.10 mph87%30.12 "HgN/A
6:20 AM39 °FPassing clouds.12 mph87%30.12 "HgN/A
Weather by CustomWeather, © 2015

See weather overviewHow to use our weather pages